Regional Weather Roundup
Issued by NWS

Home | Current Version | Previous Version | Text Only | Print | Product List | Glossary On
Versions: 1 2 3 4 5 6 7 8 9 10 11 12 13 14 15 16 17 18 19 20 21 22 23 24 25 26 27 28 29 30 31 32 33 34 35 36 37 38 39 40 41 42 43 44 45 46 47 48 49 50
000
ASUS43 KBIS 272202
RWRND

NORTH DAKOTA REGIONAL WEATHER ROUNDUP
NATIONAL WEATHER SERVICE BISMARCK ND
500 PM CDT FRI MAY 27 2016

NOTE: "FAIR" INDICATES FEW OR NO CLOUDS BELOW 12,000 FEET WITH NO
SIGNIFICANT WEATHER AND/OR OBSTRUCTIONS TO VISIBILITY.


NDZ001>003-009>011-017-272300-
NORTHWEST NORTH DAKOTA

CITY           SKY/WX    TMP DP  RH WIND       PRES   REMARKS
WILLISTON      CLOUDY    67  50  54 E5        29.83S
MINOT          CLOUDY    68  52  56 E5        29.81R
MINOT AFB      PTSUNNY   67  53  61 E8        29.80R
$$

NDZ018>021-031>035-040>046-272300-
SOUTHWEST NORTH DAKOTA

CITY           SKY/WX    TMP DP  RH WIND       PRES   REMARKS
BISMARCK       PTSUNNY   72  46  39 CALM      29.80F
DICKINSON      CLOUDY    69  42  37 VRB3      29.80F
GARRISON         N/A     66  50  56 CALM      29.81F
HETTINGER ARPT CLOUDY    65  47  52 SE7       29.83F
$$

NDZ004>008-012>016-024-026-027-054-272300-
NORTHEAST NORTH DAKOTA

CITY           SKY/WX    TMP DP  RH WIND       PRES   REMARKS
GRAND FORKS    PTSUNNY   74  54  49 N8        29.76S
GRND FRKS AFB  PTSUNNY   72  51  47 NE6       29.78S
DEVILS LAKE    SUNNY     69  50  50 W6        29.80F
$$

NDZ022-023-025-028>030-036>039-047>053-272300-
SOUTHEAST NORTH DAKOTA

CITY           SKY/WX    TMP DP  RH WIND       PRES   REMARKS
FARGO          LGT RAIN  61  58  90 NW9       29.76S
JAMESTOWN      PTSUNNY   72  51  47 N6        29.78S
$$





USA.gov is the U.S. government's official web portal to all federal, state and local government web resources and services.